WESTMAR Weather Reports


Display with metric or nautical units.
time (UTC)temp
F
wind
direction
speed
MPH
gust
MPH
rain 1hr
in
rain 24hr
in
rain mn
in
humidity
%
barometer
mb
20260506210057 60 194 0.0 2.0 0.00 0.00 0.00 78 1017.0
20260506204556 59 0 0.0 3.0 0.00 0.00 0.00 79 1017.1
20260506203047 60 0 0.0 3.0 0.00 0.00 0.00 79 1017.1
20260506201550 59 0 0.0 4.0 0.00 0.00 0.00 79 1017.0
20260506200052 60 0 0.0 3.0 0.00 0.00 0.00 78 1016.9
20260506194550 60 0 0.0 4.0 0.00 0.00 0.00 79 1016.9
20260506193045 60 0 0.0 6.0 0.00 0.00 0.00 78 1016.7
20260506191549 60 89 0.0 5.0 0.00 0.00 0.00 78 1016.7
20260506190046 61 147 1.0 5.0 0.00 0.00 0.00 76 1016.6
20260506184559 61 156 0.0 4.0 0.00 0.00 0.00 77 1016.6
20260506183048 62 183 0.0 3.0 0.00 0.00 0.00 75 1016.3
20260506181548 62 207 1.0 4.0 0.00 0.00 0.00 74 1016.4
20260506180058 61 0 0.0 1.0 0.00 0.00 0.00 76 1016.2
20260506174547 61 164 0.0 2.0 0.00 0.00 0.00 75 1016.1
20260506173047 61 0 0.0 0.0 0.00 0.00 0.00 78 1016.0
20260506171557 60 0 0.0 0.0 0.00 0.00 0.00 80 1016.0
20260506170053 59 0 0.0 3.0 0.00 0.00 0.00 80 1016.0
20260506164551 59 0 0.0 2.0 0.00 0.00 0.00 81 1015.9
20260506163049 58 0 0.0 3.0 0.00 0.00 0.00 83 1015.9
20260506161549 58 0 0.0 1.0 0.00 0.00 0.00 84 1015.7
20260506154551 56 136 0.0 2.0 0.00 0.00 0.00 86 1015.5
20260506153049 56 119 1.0 7.0 0.00 0.00 0.00 88 1015.5
20260506151550 55 0 0.0 3.0 0.00 0.00 0.00 90 1015.4
20260506150054 54 0 0.0 0.0 0.00 0.00 0.00 92 1015.3
20260506144601 53 0 0.0 0.0 0.00 0.00 0.00 93 1015.4
20260506143047 53 0 0.0 0.0 0.00 0.00 0.00 93 1015.4
20260506141547 52 0 0.0 0.0 0.00 0.00 0.00 94 1015.3
20260506140050 51 0 0.0 0.0 0.00 0.00 0.00 94 1014.9
20260506134546 50 0 0.0 0.0 0.00 0.00 0.00 94 1014.7
20260506133050 50 0 0.0 0.0 0.00 0.00 0.00 94 1014.5
20260506131557 0 0.0 0.0 0.00 0.00 0.00 1014.4
20260506130049 0 0.0 0.0 0.00 0.00 0.00 1014.3
20260506124547 0 0.0 0.0 0.00 0.00 0.00 1014.3
20260506123051 0 0.0 0.0 0.00 0.00 0.00 1014.4
20260506121542 0 0.0 0.0 0.00 0.00 0.00 1014.4
20260506120052 0 0.0 0.0 0.00 0.00 0.00 1014.1
20260506114552 0 0.0 0.0 0.00 0.00 0.00 1014.0
20260506113045 0 0.0 0.0 0.00 0.00 0.00 1014.1
20260506111547 45 0.0 0.0 0.00 0.00 0.00 92 1014.1
20260506110042 46 0 0.0 0.0 0.00 0.00 0.00 93 1013.9
20260506104551 46 0 0.0 0.0 0.00 0.00 0.00 93 1013.7
20260506103052 46 0 0.0 0.0 0.00 0.00 0.00 92 1013.6
20260506101550 47 0 0.0 0.0 0.00 0.00 0.00 93 1013.5
20260506100100 47 0 0.0 0.0 0.00 0.00 0.00 92 1013.5
20260506094552 47 0 0.0 0.0 0.00 0.00 0.00 92 1013.4
20260506093045 47 0 0.0 0.0 0.00 0.00 0.00 92 1013.1
20260506091545 48 0 0.0 0.0 0.00 0.00 0.00 92 1013.0
20260506090044 48 0 0.0 0.0 0.00 0.00 0.00 92 1012.9
20260506084546 48 0 0.0 0.0 0.00 0.00 0.00 92 1012.9
20260506083042 48 0 0.0 0.0 0.00 0.00 0.00 91 1012.7
20260506081543 48 0 0.0 0.0 0.00 0.00 0.00 91 1012.6
20260506073045 49 0 0.0 0.0 0.00 0.00 0.00 91 1012.3
20260506071552 50 0 0.0 0.0 0.00 0.00 0.00 91 1012.2
20260506061546 51 0 0.0 0.0 0.00 0.00 0.00 90 1011.9
20260506044547 55 0 0.0 0.0 0.00 0.00 0.00 85 1011.4
20260506043046 57 0 0.0 0.0 0.00 0.00 0.00 83 1011.3
20260506041550 59 0 0.0 0.0 0.00 0.00 0.00 78 1011.2
20260506040055 60 0 0.0 0.0 0.00 0.00 0.00 77 1011.1
20260506034549 61 0 0.0 0.0 0.00 0.00 0.00 76 1010.9
20260506033042 61 0 0.0 0.0 0.00 0.00 0.00 75 1010.7
20260506031546 63 0 0.0 0.0 0.00 0.00 0.00 73 1010.4
20260506030100 64 0 0.0 0.0 0.00 0.00 0.00 71 1010.3
20260506024555 65 0 0.0 0.0 0.00 0.00 0.00 70 1010.3
20260506023052 66 0 0.0 0.0 0.00 0.00 0.00 69 1010.2
20260506021558 67 0 0.0 5.0 0.00 0.00 0.00 68 1010.3
20260506020048 68 0 1.0 5.0 0.00 0.00 0.00 67 1010.2
20260506014556 69 36 0.0 8.0 0.00 0.00 0.00 65 1010.1
20260506013054 70 0 0.0 3.0 0.00 0.00 0.00 63 1010.2
20260506011544 72 96 0.0 4.0 0.00 0.00 0.00 61 1010.2
20260506010053 73 0 0.0 3.0 0.00 0.00 0.00 60 1010.2
20260506004550 73 55 0.0 5.0 0.00 0.00 0.00 59 1010.2
20260506003045 72 69 1.0 6.0 0.00 0.00 0.00 60 1010.4
20260506001546 72 98 2.0 7.0 0.00 0.00 0.00 61 1010.7
20260506000047 72 16 1.0 6.0 0.00 0.00 0.00 60 1010.8
20260505234547 73 82 0.0 6.0 0.00 0.00 0.00 60 1010.9
20260505233057 74 75 0.0 9.0 0.00 0.00 0.00 59 1010.9
20260505231549 73 0 2.0 5.0 0.00 0.00 0.00 59 1011.1
20260505230051 73 0 1.0 6.0 0.00 0.00 0.00 59 1011.1
20260505224549 74 0 1.0 6.0 0.00 0.00 0.00 59 1011.3
20260505223050 72 32 2.0 9.0 0.00 0.00 0.00 60 1011.4
20260505221555 73 83 0.0 8.0 0.00 0.00 0.00 61 1011.5
20260505220057 73 49 2.0 5.0 0.00 0.00 0.00 60 1011.6
20260505214544 72 0 1.0 9.0 0.00 0.00 0.00 61 1011.7
20260505213051 73 43 1.0 7.0 0.00 0.00 0.00 60 1011.8
20260505211546 72 331 2.0 8.0 0.00 0.00 0.00 61 1011.8